Location: *
(37.4917°N, 71.5558°E)
Time: 08:56:01
(UTC+00:00)

Cosmos 1300 - Pass Details

Date: 09 April 2020
Orbit: 511 x 515 km, 82.5° (Epoch: 03 June)

Event Time Altitude Azimuth Distance (km) Brightness Sun altitude
Exits shadow 15:33:42 40° 198° (SSW) 769 3.4 -21.3°
Maximum altitude 15:34:58 78° 277° (W) 530 2.7 -21.5°
Drops below altitude 10° 15:38:48 10° 4° (N) 1,746 5.7 -22.1°
Sets 15:40:57 0° 6° (N) 2,638 6.6 -22.5°
